IRIDIUM 94 [S]

Last updated on Fri Jul 15 2016 17:38:29 GMT+0000 (Coordinated Universal Time)

1 27374U 02005C 16197.50701900 .00000070 00000-0 18004-4 0 9990 2 27374 86.3941 36.4779 0003107 86.2461 334.9104 14.34219436767696

Satellite not in orbit

IRIDIUM 94 [S]